Time,TemperatureF,DewpointF,PressureIn,WindDirection,WindDirectionDegrees,WindSpeedMPH,WindSpeedGustMPH,Humidity,HourlyPrecipIn,Conditions,Clouds,dailyrainin,SoftwareType,DateUTC
2013-02-03 00:01:00,46.0,38.0,30.17,North,355,0.0,2.0,73,0.00,,,0.00,,2013-02-03 08:01:00,
2013-02-03 00:11:00,46.0,38.0,30.17,North,355,0.0,2.0,73,0.00,,,0.00,,2013-02-03 08:11:00,
2013-02-03 00:22:00,46.0,37.0,30.16,North,355,0.0,0.0,72,0.00,,,0.00,,2013-02-03 08:22:00,
2013-02-03 00:32:00,46.0,37.0,30.15,North,355,0.0,0.0,71,0.00,,,0.00,,2013-02-03 08:32:00,
2013-02-03 00:41:00,46.0,37.0,30.15,North,355,0.0,0.0,71,0.00,,,0.00,,2013-02-03 08:41:00,
2013-02-03 00:52:00,47.0,37.0,30.15,North,355,0.0,1.0,68,0.00,,,0.00,,2013-02-03 08:52:00,
2013-02-03 01:02:00,47.0,37.0,30.14,North,355,0.0,1.0,68,0.00,,,0.00,,2013-02-03 09:02:00,
2013-02-03 01:11:00,47.0,37.0,30.14,North,355,0.0,1.0,68,0.00,,,0.00,,2013-02-03 09:11:00,
2013-02-03 01:21:00,47.0,37.0,30.14,North,355,0.0,1.0,68,0.00,,,0.00,,2013-02-03 09:21:00,
2013-02-03 01:31:00,48.0,38.0,30.14,West,261,0.0,2.0,67,0.00,,,0.00,,2013-02-03 09:31:00,
2013-02-03 01:41:00,48.0,38.0,30.14,West,261,0.0,2.0,67,0.00,,,0.00,,2013-02-03 09:41:00,
2013-02-03 01:52:00,48.0,38.0,30.14,SW,217,0.0,0.0,67,0.00,,,0.00,,2013-02-03 09:52:00,
2013-02-03 02:01:00,47.0,37.0,30.13,SW,217,0.0,0.0,69,0.00,,,0.00,,2013-02-03 10:01:00,
2013-02-03 02:11:00,47.0,37.0,30.14,SW,221,0.0,1.0,68,0.00,,,0.00,,2013-02-03 10:11:00,
2013-02-03 02:21:00,47.0,37.0,30.14,SW,221,0.0,1.0,68,0.00,,,0.00,,2013-02-03 10:21:00,
2013-02-03 02:31:00,47.0,38.0,30.13,SW,221,0.0,0.0,70,0.00,,,0.00,,2013-02-03 10:31:00,
2013-02-03 02:41:00,47.0,38.0,30.13,SW,221,0.0,0.0,70,0.00,,,0.00,,2013-02-03 10:41:00,
2013-02-03 02:52:00,45.0,36.0,30.13,NNW,336,0.0,3.0,71,0.00,,,0.00,,2013-02-03 10:52:00,
2013-02-03 03:01:00,44.0,36.0,30.13,NNW,336,0.0,3.0,73,0.00,,,0.00,,2013-02-03 11:01:00,
2013-02-03 03:11:00,44.0,36.0,30.13,NNW,336,0.0,3.0,73,0.00,,,0.00,,2013-02-03 11:11:00,
2013-02-03 03:22:00,43.0,36.0,30.13,NNW,341,3.0,4.0,76,0.00,,,0.00,,2013-02-03 11:22:00,
2013-02-03 03:31:00,43.0,36.0,30.12,North,350,1.0,5.0,75,0.00,,,0.00,,2013-02-03 11:31:00,
2013-02-03 03:41:00,43.0,36.0,30.12,North,350,1.0,5.0,75,0.00,,,0.00,,2013-02-03 11:41:00,
2013-02-03 03:52:00,43.0,36.0,30.12,North,355,3.0,6.0,76,0.00,,,0.00,,2013-02-03 11:52:00,
2013-02-03 04:02:00,43.0,36.0,30.12,North,360,4.0,6.0,77,0.00,,,0.00,,2013-02-03 12:02:00,
2013-02-03 04:11:00,43.0,36.0,30.12,North,360,4.0,6.0,77,0.00,,,0.00,,2013-02-03 12:11:00,
2013-02-03 04:21:00,43.0,36.0,30.11,North,355,2.0,3.0,77,0.00,,,0.00,,2013-02-03 12:21:00,
2013-02-03 04:32:00,42.0,35.0,30.11,North,355,2.0,6.0,77,0.00,,,0.00,,2013-02-03 12:32:00,
2013-02-03 04:42:00,42.0,35.0,30.11,North,355,2.0,6.0,77,0.00,,,0.00,,2013-02-03 12:42:00,
2013-02-03 04:53:00,42.0,35.0,30.11,North,350,2.0,5.0,77,0.00,,,0.00,,2013-02-03 12:53:00,
2013-02-03 05:02:00,42.0,36.0,30.11,North,355,4.0,6.0,78,0.00,,,0.00,,2013-02-03 13:02:00,
2013-02-03 05:11:00,42.0,35.0,30.11,North,350,2.0,3.0,77,0.00,,,0.00,,2013-02-03 13:11:00,
2013-02-03 05:21:00,42.0,35.0,30.11,North,350,2.0,3.0,77,0.00,,,0.00,,2013-02-03 13:21:00,
2013-02-03 05:31:00,43.0,36.0,30.10,North,355,3.0,5.0,75,0.00,,,0.00,,2013-02-03 13:31:00,
2013-02-03 05:41:00,43.0,36.0,30.10,North,355,3.0,5.0,75,0.00,,,0.00,,2013-02-03 13:41:00,
2013-02-03 05:52:00,43.0,36.0,30.10,North,355,1.0,4.0,75,0.00,,,0.00,,2013-02-03 13:52:00,
2013-02-03 06:01:00,43.0,35.0,30.10,North,350,0.0,3.0,74,0.00,,,0.00,,2013-02-03 14:01:00,
2013-02-03 06:11:00,43.0,35.0,30.10,North,350,0.0,3.0,74,0.00,,,0.00,,2013-02-03 14:11:00,
2013-02-03 06:21:00,43.0,35.0,30.09,ESE,103,0.0,2.0,74,0.00,,,0.00,,2013-02-03 14:21:00,
2013-02-03 06:31:00,43.0,35.0,30.09,ENE,74,0.0,2.0,74,0.00,,,0.00,,2013-02-03 14:31:00,
2013-02-03 06:41:00,43.0,35.0,30.09,ENE,74,0.0,2.0,74,0.00,,,0.00,,2013-02-03 14:41:00,
2013-02-03 06:52:00,43.0,35.0,30.09,NW,320,0.0,6.0,73,0.00,,,0.00,,2013-02-03 14:52:00,
2013-02-03 07:02:00,43.0,35.0,30.09,WNW,303,1.0,4.0,74,0.00,,,0.00,,2013-02-03 15:02:00,
2013-02-03 07:11:00,46.0,36.0,30.09,NNW,340,3.0,7.0,67,0.00,,,0.00,,2013-02-03 15:11:00,
2013-02-03 07:21:00,46.0,36.0,30.09,NNW,340,3.0,7.0,67,0.00,,,0.00,,2013-02-03 15:21:00,
2013-02-03 07:32:00,48.0,34.0,30.09,North,355,6.0,12.0,59,0.00,,,0.00,,2013-02-03 15:32:00,
2013-02-03 07:41:00,48.0,34.0,30.09,North,355,6.0,12.0,59,0.00,,,0.00,,2013-02-03 15:41:00,
2013-02-03 07:52:00,47.0,32.0,30.09,NW,324,1.0,4.0,56,0.00,,,0.00,,2013-02-03 15:52:00,
2013-02-03 08:01:00,46.0,34.0,30.09,West,271,1.0,5.0,63,0.00,,,0.00,,2013-02-03 16:01:00,
2013-02-03 08:11:00,46.0,34.0,30.09,West,271,1.0,5.0,63,0.00,,,0.00,,2013-02-03 16:11:00,
2013-02-03 08:21:00,47.0,33.0,30.09,WNW,288,1.0,6.0,59,0.00,,,0.00,,2013-02-03 16:21:00,
2013-02-03 08:31:00,49.0,33.0,30.10,North,350,1.0,4.0,53,0.00,,,0.00,,2013-02-03 16:31:00,
2013-02-03 08:41:00,49.0,33.0,30.10,North,350,1.0,4.0,53,0.00,,,0.00,,2013-02-03 16:41:00,
2013-02-03 08:52:00,50.0,33.0,30.10,NNE,23,6.0,11.0,51,0.00,,,0.00,,2013-02-03 16:52:00,
2013-02-03 09:01:00,50.0,32.0,30.10,North,5,7.0,11.0,50,0.00,,,0.00,,2013-02-03 17:01:00,
2013-02-03 09:11:00,50.0,32.0,30.10,North,5,7.0,11.0,50,0.00,,,0.00,,2013-02-03 17:11:00,
2013-02-03 09:21:00,51.0,32.0,30.10,NNW,335,3.0,9.0,48,0.00,,,0.00,,2013-02-03 17:21:00,
2013-02-03 09:31:00,51.0,31.0,30.10,North,360,2.0,11.0,47,0.00,,,0.00,,2013-02-03 17:31:00,
2013-02-03 09:41:00,51.0,31.0,30.10,North,360,2.0,11.0,47,0.00,,,0.00,,2013-02-03 17:41:00,
2013-02-03 09:52:00,52.0,32.0,30.11,NNW,348,4.0,8.0,46,0.00,,,0.00,,2013-02-03 17:52:00,
2013-02-03 10:01:00,52.0,31.0,30.12,NNW,331,4.0,10.0,45,0.00,,,0.00,,2013-02-03 18:01:00,
2013-02-03 10:11:00,52.0,31.0,30.12,NNW,331,4.0,10.0,45,0.00,,,0.00,,2013-02-03 18:11:00,
2013-02-03 10:22:00,53.0,32.0,30.12,North,351,4.0,14.0,45,0.00,,,0.00,,2013-02-03 18:22:00,
2013-02-03 10:31:00,52.0,30.0,30.12,NNW,348,5.0,12.0,43,0.00,,,0.00,,2013-02-03 18:31:00,
2013-02-03 10:41:00,52.0,30.0,30.12,NNW,348,5.0,12.0,43,0.00,,,0.00,,2013-02-03 18:41:00,
2013-02-03 10:52:00,53.0,31.0,30.13,NNW,329,4.0,12.0,42,0.00,,,0.00,,2013-02-03 18:52:00,
2013-02-03 11:01:00,53.0,30.0,30.12,NW,319,5.0,14.0,41,0.00,,,0.00,,2013-02-03 19:01:00,
2013-02-03 11:11:00,53.0,30.0,30.12,NW,319,5.0,14.0,41,0.00,,,0.00,,2013-02-03 19:11:00,
2013-02-03 11:21:00,53.0,29.0,30.12,ESE,115,7.0,16.0,39,0.00,,,0.00,,2013-02-03 19:21:00,
2013-02-03 11:31:00,53.0,29.0,30.11,NW,324,9.0,16.0,39,0.00,,,0.00,,2013-02-03 19:31:00,
2013-02-03 11:41:00,53.0,29.0,30.11,NW,324,9.0,16.0,39,0.00,,,0.00,,2013-02-03 19:41:00,
2013-02-03 11:52:00,54.0,29.0,30.10,NNW,329,7.0,12.0,38,0.00,,,0.00,,2013-02-03 19:52:00,
2013-02-03 12:01:00,54.0,29.0,30.09,North,355,8.0,16.0,38,0.00,,,0.00,,2013-02-03 20:01:00,
2013-02-03 12:11:00,54.0,29.0,30.09,North,355,8.0,16.0,38,0.00,,,0.00,,2013-02-03 20:11:00,
2013-02-03 12:21:00,53.0,27.0,30.09,NNW,340,9.0,16.0,36,0.00,,,0.00,,2013-02-03 20:21:00,
2013-02-03 12:31:00,54.0,30.0,30.08,NNW,345,10.0,18.0,39,0.00,,,0.00,,2013-02-03 20:31:00,
2013-02-03 12:41:00,54.0,30.0,30.08,NNW,345,10.0,18.0,39,0.00,,,0.00,,2013-02-03 20:41:00,
2013-02-03 12:52:00,54.0,28.0,30.07,NE,34,10.0,17.0,37,0.00,,,0.00,,2013-02-03 20:52:00,
2013-02-03 13:02:00,54.0,27.0,30.06,NNW,347,8.0,16.0,35,0.00,,,0.00,,2013-02-03 21:02:00,
2013-02-03 13:11:00,54.0,27.0,30.06,NNW,347,8.0,16.0,35,0.00,,,0.00,,2013-02-03 21:11:00,
2013-02-03 13:21:00,56.0,28.0,30.05,NW,306,7.0,14.0,34,0.00,,,0.00,,2013-02-03 21:21:00,
2013-02-03 13:31:00,56.0,25.0,30.05,North,360,10.0,16.0,30,0.00,,,0.00,,2013-02-03 21:31:00,
2013-02-03 13:42:00,56.0,25.0,30.05,North,360,10.0,16.0,30,0.00,,,0.00,,2013-02-03 21:42:00,
2013-02-03 13:52:00,55.0,26.0,30.04,NNW,346,9.0,24.0,32,0.00,,,0.00,,2013-02-03 21:52:00,
2013-02-03 14:01:00,55.0,26.0,30.04,NE,36,8.0,14.0,32,0.00,,,0.00,,2013-02-03 22:01:00,
2013-02-03 14:11:00,55.0,26.0,30.04,NE,36,8.0,14.0,32,0.00,,,0.00,,2013-02-03 22:11:00,
2013-02-03 14:21:00,55.0,24.0,30.05,NW,313,7.0,14.0,30,0.00,,,0.00,,2013-02-03 22:21:00,
2013-02-03 14:31:00,55.0,26.0,30.05,NNW,348,8.0,16.0,32,0.00,,,0.00,,2013-02-03 22:31:00,
2013-02-03 14:41:00,55.0,26.0,30.05,NNW,348,8.0,16.0,32,0.00,,,0.00,,2013-02-03 22:41:00,
2013-02-03 14:51:00,55.0,27.0,30.04,North,5,5.0,12.0,34,0.00,,,0.00,,2013-02-03 22:51:00,
2013-02-03 15:01:00,54.0,26.0,30.05,North,355,5.0,11.0,33,0.00,,,0.00,,2013-02-03 23:01:00,
2013-02-03 15:11:00,54.0,26.0,30.05,North,355,5.0,11.0,33,0.00,,,0.00,,2013-02-03 23:11:00,
2013-02-03 15:21:00,55.0,27.0,30.04,North,349,4.0,10.0,34,0.00,,,0.00,,2013-02-03 23:21:00,
2013-02-03 15:32:00,54.0,24.0,30.04,North,355,5.0,11.0,31,0.00,,,0.00,,2013-02-03 23:32:00,
2013-02-03 15:41:00,54.0,24.0,30.04,North,355,5.0,11.0,31,0.00,,,0.00,,2013-02-03 23:41:00,
2013-02-03 15:52:00,54.0,23.0,30.04,NNW,348,2.0,13.0,30,0.00,,,0.00,,2013-02-03 23:52:00,
2013-02-03 16:01:00,55.0,24.0,30.04,NNW,339,6.0,9.0,30,0.00,,,0.00,,2013-02-04 00:01:00,
2013-02-03 16:11:00,55.0,24.0,30.04,NNW,339,6.0,9.0,30,0.00,,,0.00,,2013-02-04 00:11:00,
2013-02-03 16:21:00,54.0,27.0,30.04,North,9,5.0,12.0,35,0.00,,,0.00,,2013-02-04 00:21:00,
2013-02-03 16:31:00,53.0,26.0,30.03,North,355,5.0,13.0,35,0.00,,,0.00,,2013-02-04 00:31:00,
2013-02-03 16:41:00,53.0,26.0,30.03,North,355,5.0,13.0,35,0.00,,,0.00,,2013-02-04 00:41:00,
2013-02-03 16:51:00,52.0,25.0,30.03,North,355,5.0,11.0,35,0.00,,,0.00,,2013-02-04 00:51:00,
2013-02-03 17:01:00,52.0,22.0,30.03,NNW,342,7.0,12.0,30,0.00,,,0.00,,2013-02-04 01:01:00,
2013-02-03 17:11:00,52.0,22.0,30.03,NNW,342,7.0,12.0,30,0.00,,,0.00,,2013-02-04 01:11:00,
2013-02-03 17:21:00,51.0,21.0,30.03,NNW,345,8.0,13.0,31,0.00,,,0.00,,2013-02-04 01:21:00,
2013-02-03 17:31:00,51.0,20.0,30.03,NNW,347,6.0,12.0,29,0.00,,,0.00,,2013-02-04 01:31:00,
2013-02-03 17:41:00,51.0,20.0,30.03,NNW,347,6.0,12.0,29,0.00,,,0.00,,2013-02-04 01:41:00,
2013-02-03 17:52:00,51.0,19.0,30.03,NNW,342,8.0,15.0,28,0.00,,,0.00,,2013-02-04 01:52:00,
2013-02-03 18:01:00,50.0,20.0,30.03,NW,317,9.0,16.0,30,0.00,,,0.00,,2013-02-04 02:01:00,
2013-02-03 18:11:00,50.0,20.0,30.03,NW,317,9.0,16.0,30,0.00,,,0.00,,2013-02-04 02:11:00,
2013-02-03 18:21:00,50.0,21.0,30.03,NNW,348,9.0,17.0,32,0.00,,,0.00,,2013-02-04 02:21:00,
2013-02-03 18:31:00,50.0,20.0,30.04,NNW,346,9.0,18.0,30,0.00,,,0.00,,2013-02-04 02:31:00,
2013-02-03 18:41:00,50.0,20.0,30.04,NNW,346,9.0,18.0,30,0.00,,,0.00,,2013-02-04 02:41:00,
2013-02-03 18:52:00,50.0,22.0,30.05,North,360,7.0,16.0,33,0.00,,,0.00,,2013-02-04 02:52:00,
2013-02-03 19:01:00,50.0,19.0,30.05,North,355,9.0,14.0,29,0.00,,,0.00,,2013-02-04 03:01:00,
2013-02-03 19:11:00,51.0,16.0,30.06,North,9,11.0,19.0,24,0.00,,,0.00,,2013-02-04 03:11:00,
2013-02-03 19:21:00,51.0,16.0,30.06,North,9,11.0,19.0,24,0.00,,,0.00,,2013-02-04 03:21:00,
2013-02-03 19:31:00,51.0,16.0,30.05,North,5,13.0,20.0,24,0.00,,,0.00,,2013-02-04 03:31:00,
2013-02-03 19:41:00,51.0,16.0,30.05,North,5,13.0,20.0,24,0.00,,,0.00,,2013-02-04 03:41:00,
2013-02-03 19:51:00,50.0,16.0,30.05,North,355,10.0,18.0,25,0.00,,,0.00,,2013-02-04 03:51:00,
2013-02-03 20:01:00,50.0,16.0,30.04,North,5,13.0,21.0,25,0.00,,,0.00,,2013-02-04 04:01:00,
2013-02-03 20:11:00,50.0,16.0,30.04,North,5,13.0,21.0,25,0.00,,,0.00,,2013-02-04 04:11:00,
2013-02-03 20:21:00,52.0,20.0,30.03,North,5,14.0,26.0,28,0.00,,,0.00,,2013-02-04 04:21:00,
2013-02-03 20:31:00,51.0,21.0,30.04,NNW,329,11.0,19.0,30,0.00,,,0.00,,2013-02-04 04:31:00,
2013-02-03 20:41:00,51.0,21.0,30.04,NNW,329,11.0,19.0,30,0.00,,,0.00,,2013-02-04 04:41:00,
2013-02-03 20:52:00,51.0,22.0,30.04,NNE,12,11.0,16.0,32,0.00,,,0.00,,2013-02-04 04:52:00,
2013-02-03 21:11:00,51.0,22.0,30.04,North,360,11.0,15.0,32,0.00,,,0.00,,2013-02-04 05:11:00,
2013-02-03 21:21:00,51.0,23.0,30.05,North,5,12.0,18.0,33,0.00,,,0.00,,2013-02-04 05:21:00,
2013-02-03 21:33:00,51.0,23.0,30.05,North,5,11.0,17.0,33,0.00,,,0.00,,2013-02-04 05:33:00,
2013-02-03 21:41:00,51.0,23.0,30.05,North,5,11.0,17.0,33,0.00,,,0.00,,2013-02-04 05:41:00,
2013-02-03 21:51:00,51.0,23.0,30.05,North,11,7.0,15.0,33,0.00,,,0.00,,2013-02-04 05:51:00,
2013-02-03 22:01:00,51.0,23.0,30.06,NNW,337,8.0,14.0,33,0.00,,,0.00,,2013-02-04 06:01:00,
2013-02-03 22:11:00,51.0,23.0,30.06,NNW,337,8.0,14.0,33,0.00,,,0.00,,2013-02-04 06:11:00,
2013-02-03 22:21:00,52.0,25.0,30.05,NW,320,9.0,20.0,34,0.00,,,0.00,,2013-02-04 06:21:00,
2013-02-03 22:31:00,51.0,24.0,30.05,North,351,8.0,17.0,34,0.00,,,0.00,,2013-02-04 06:31:00,
2013-02-03 22:41:00,51.0,24.0,30.05,North,351,8.0,17.0,34,0.00,,,0.00,,2013-02-04 06:41:00,
2013-02-03 22:52:00,51.0,23.0,30.05,North,360,8.0,14.0,33,0.00,,,0.00,,2013-02-04 06:52:00,
2013-02-03 23:01:00,47.0,23.0,30.06,NNE,19,9.0,19.0,39,0.00,,,0.00,,2013-02-04 07:01:00,
2013-02-03 23:11:00,50.0,23.0,30.06,North,360,9.0,14.0,35,0.00,,,0.00,,2013-02-04 07:11:00,
2013-02-03 23:21:00,50.0,23.0,30.06,North,360,9.0,14.0,35,0.00,,,0.00,,2013-02-04 07:21:00,
2013-02-03 23:31:00,52.0,25.0,30.05,NNW,340,7.0,12.0,35,0.00,,,0.00,,2013-02-04 07:31:00,
2013-02-03 23:41:00,52.0,25.0,30.05,NNW,340,7.0,12.0,35,0.00,,,0.00,,2013-02-04 07:41:00,
2013-02-03 23:52:00,52.0,25.0,30.05,North,5,7.0,11.0,35,0.00,,,0.00,,2013-02-04 07:52:00,